Location: Vale
(35.4830°N, 81.3830°W)
Time: 06:51:33
(UTC-04:00)

SR - All Passes

Search period start: 31 August 2015 00:00
Search period end: 10 September 2015 00:00
Orbit: 579 x 881 km, 66.7° (Epoch: 30 August)

Date Brightness Start Highest point End Pass type
(mag) Time Alt. Az. Time Alt. Az. Time Alt. Az.
31 Aug - 10:41:06 10° SW 10:45:24 66° WNW 10:50:01 10° NNE daylight
31 Aug - 19:24:00 10° NNW 19:29:22 47° ENE 19:35:01 10° SE daylight
31 Aug - 21:06:49 10° NW 21:11:20 24° WSW 21:15:49 10° SSW visible
01 Sep - 09:52:16 10° S 09:56:26 52° ESE 10:00:57 10° NE daylight
01 Sep - 11:36:17 10° W 11:39:01 15° NW 11:41:42 10° NNW daylight
01 Sep - 18:35:34 10° N 18:40:05 25° NE 18:44:53 10° ESE daylight
01 Sep - 20:17:02 10° NW 20:22:28 47° WSW 20:28:04 10° S visible
02 Sep - 09:04:23 10° SSE 09:07:39 22° ESE 09:11:12 10° ENE daylight
02 Sep - 10:45:40 10° WSW 10:49:34 30° NW 10:53:42 10° N daylight
02 Sep - 17:47:51 10° NNE 17:50:33 14° NE 17:53:36 10° ENE daylight
02 Sep - 19:27:50 10° NNW 19:33:30 88° ENE 19:39:26 10° SSE daylight
02 Sep - 21:13:14 10° W 21:15:11 11° WSW 21:16:43 10° WSW visible
03 Sep - 09:56:04 10° SW 10:00:23 68° WNW 10:05:03 10° NNE daylight
03 Sep - 18:39:02 10° NNW 18:44:24 46° ENE 18:50:02 10° SE daylight
03 Sep - 20:21:47 10° NW 20:26:23 24° WSW 20:30:56 10° SSW visible
04 Sep - 09:07:16 10° S 09:11:26 50° ESE 09:15:57 10° NE daylight
04 Sep - 10:51:09 10° W 10:54:00 16° NW 10:56:48 10° N daylight
04 Sep - 17:50:36 10° N 17:55:05 25° NE 17:59:53 10° ESE daylight
04 Sep - 19:32:02 10° NW 19:37:30 49° WSW 19:43:08 10° S daylight
05 Sep - 08:19:25 10° SSE 08:22:40 21° ESE 08:26:11 10° ENE daylight
05 Sep - 10:00:36 10° WSW 10:04:33 31° NW 10:08:45 10° N daylight
05 Sep - 17:02:54 10° NNE 17:05:33 14° NE 17:08:33 10° ENE daylight
05 Sep - 18:42:51 10° NNW 18:48:32 86° ENE 18:54:28 10° SSE daylight
05 Sep - 20:28:01 10° W 20:30:13 12° WSW 20:32:00 10° WSW visible
06 Sep - 09:11:02 10° SW 09:15:23 70° WNW 09:20:05 10° NNE daylight
06 Sep - 17:54:03 10° NNW 17:59:25 45° ENE 18:05:03 10° SE daylight
06 Sep - 19:36:45 10° NW 19:41:25 25° WSW 19:46:02 10° SSW daylight
07 Sep - 08:22:15 10° S 08:26:26 49° ESE 08:30:58 10° NE daylight
07 Sep - 10:06:02 10° W 10:08:58 16° NW 10:11:53 10° N daylight
07 Sep - 17:05:37 10° N 17:10:06 24° NE 17:14:52 10° ESE daylight
07 Sep - 18:47:01 10° NW 18:52:32 50° WSW 18:58:12 10° S daylight
08 Sep - 07:34:27 10° SSE 07:37:40 21° ESE 07:41:09 10° ENE daylight
08 Sep - 09:15:32 10° WSW 09:19:32 32° NW 09:23:48 10° N daylight
08 Sep - 16:17:57 10° NNE 16:20:33 13° NE 16:23:29 10° ENE daylight
08 Sep - 17:57:51 10° NNW 18:03:34 84° ENE 18:09:30 10° SSE daylight
08 Sep - 19:42:51 10° W 19:45:15 12° WSW 19:47:15 10° SW daylight
09 Sep - 08:26:00 10° SSW 08:30:22 72° WNW 08:35:06 10° NNE daylight
09 Sep - 17:09:03 10° NNW 17:14:26 44° ENE 17:20:03 10° SE daylight
09 Sep - 18:51:43 10° NW 18:56:26 26° WSW 19:01:07 10° SSW daylight
